Home   Weather   Maastricht   Past weeks

Flag for Netherlands Past Weather in Maastricht, Netherlands — Yesterday and Last 2 Weeks

Now
25 °F

Clear.


Feels Like: 16 °F
Forecast: 18 / 32 °F
Wind: 8 mph from Northeast

Location: Maastricht Airport Zuid Limburg

Current Time: Jan 21, 2017 at 5:28:18 am

Latest Report: Jan 21, 2017 at 4:55 am


Visibility: N/A

Pressure: 30.42 "Hg

Humidity: 86%

Dew Point: 21 °F

Location of MaastrichtLocation

Past Weather in Maastricht — Graph

°F

Maastricht Temperature Yesterday

Maximum temperature yesterday: 39 °F (at 2:55 pm)
Minimum temperature yesterday: 21 °F (at 12:55 am)
Average temperature yesterday: 29 °F

High & Low Weather Summary for the Past Weeks

 TemperatureHumidityPressure
High46 °F (Jan 11, 2:25 pm)100% (Jan 7, 10:55 am)30.72 "Hg (Jan 7, 10:55 am)
Low19 °F (Jan 6, 7:25 am)28% (Jan 20, 3:25 pm)28.94 "Hg (Jan 13, 12:25 am)
Average33 °F87%30.21 "Hg
* Reported Jan 6 3:25 am — Jan 21 3:55 am, Maastricht, Weather by CustomWeather, © 2017

Note: Actual official high and low records may vary slightly from our data, if they occured in-between our weather recording intervals... More about our weather records

Advertising

Maastricht Weather History for the Previous 24 Hours

Scroll right to see more
 ConditionsComfort  
Time TempWeatherWind HumidityBarometerVisibility
3:55 am
Sat, Jan 21
27 °FClear.6 mph86%30.42 "HgN/A
3:25 am25 °FClear.3 mph86%30.42 "HgN/A
2:55 am25 °FClear.8 mph86%30.42 "Hg5 mi
2:25 am23 °FClear.8 mph93%30.42 "HgN/A
1:55 am25 °FClear.6 mph80%30.42 "HgN/A
1:25 am25 °FClear.7 mph86%30.42 "HgN/A
12:55 am25 °FClear.9 mph86%30.45 "HgN/A
12:25 am27 °FClear.7 mph80%30.45 "HgN/A
11:55 pm
Fri, Jan 20
27 °FClear.7 mph86%30.45 "HgN/A
11:25 pm25 °FClear.7 mph86%30.45 "Hg5 mi
10:55 pm27 °FClear.7 mph86%30.45 "HgN/A
10:25 pm25 °FClear.8 mph86%30.45 "HgN/A
9:55 pm25 °FClear.8 mph86%30.45 "HgN/A
9:25 pm28 °FClear.7 mph80%30.48 "HgN/A
8:55 pm27 °FChilly.7 mph80%30.48 "HgN/A
8:25 pm28 °FClear.6 mph80%30.48 "HgN/A
7:55 pm27 °FClear.7 mph80%30.48 "HgN/A
7:25 pm30 °FClear.7 mph75%30.48 "HgN/A
6:55 pm32 °FClear.9 mph69%30.48 "HgN/A
6:25 pm34 °FClear.9 mph65%30.48 "HgN/A
5:55 pm34 °FClear.8 mph60%30.48 "HgN/A
5:25 pm36 °FClear.9 mph56%30.48 "HgN/A
4:55 pm37 °FClear.10 mph41%30.48 "HgN/A
4:25 pm39 °FClear.13 mph36%30.48 "HgN/A
3:55 pm39 °FClear.12 mph36%30.48 "HgN/A
3:25 pm39 °FChilly.13 mph28%30.48 "HgN/A
2:55 pm39 °FClear.12 mph36%30.48 "HgN/A
2:25 pm37 °FClear.13 mph41%30.48 "HgN/A
1:55 pm37 °FClear.13 mph41%30.48 "HgN/A
1:25 pm37 °FClear.12 mph41%30.51 "HgN/A
12:55 pm36 °FClear.10 mph41%30.51 "HgN/A
12:25 pm36 °FClear.12 mph44%30.51 "HgN/A
11:55 am34 °FClear.10 mph51%30.51 "HgN/A
11:25 am32 °FClear.10 mph55%30.54 "HgN/A
10:55 am32 °FClear.7 mph55%30.54 "HgN/A
10:25 am28 °FClear.8 mph64%30.54 "HgN/A
9:55 am27 °FClear.8 mph69%30.54 "HgN/A
9:25 am27 °FClear.7 mph64%30.54 "HgN/A
8:55 am25 °FCold.6 mph69%30.54 "HgN/A
8:25 am25 °FClear.8 mph69%30.51 "HgN/A
7:55 am25 °FClear.9 mph69%30.51 "HgN/A
7:25 am25 °FClear.8 mph74%30.51 "HgN/A
6:55 am25 °FClear.10 mph74%30.54 "HgN/A
6:25 am25 °FClear.9 mph74%30.54 "HgN/A
5:55 am25 °FClear.10 mph74%30.54 "HgN/A
5:25 am25 °FClear.8 mph74%30.54 "HgN/A
Weather by CustomWeather, © 2017

See weather overviewHow to use our weather pages